Flag for Canada Weather past 2 weeks in Thunder Bay, Ontario, Canada

Now
19 °F

Light snow. Mostly cloudy.


Feels Like: 13 °F
Forecast: 15 / 27 °F
Wind: 5 mph from Northwest

Location: Thunder Bay

Current Time: Jan 26, 2015 at 11:25:08 PM

Latest Report: Jan 26, 2015 at 11:00 PM


Visibility: 15 mi

Pressure: 30.00 "Hg

Humidity: 100%

Dew point: 19 °F

Location of Thunder BayLocation

Historic Weather in Thunder Bay — Graph

°F

Thunder Bay temperature yesterday

Maximum temperature yesterday: 12 °F (at 4:00 PM)
Minimum temperature yesterday: -13 °F (at 6:00 AM)
Average temperature yesterday: -1 °F

Past Weeks' High & Low Weather Summary

 TemperatureHumidityPressure
High39 °F (Jan 23, 1:00 PM)100% (Jan 14, 11:00 PM)30.83 "Hg (Jan 14, 11:00 PM)
Low-26 °F (Jan 13, 9:00 AM)40% (Jan 25, 3:00 PM)29.32 "Hg (Jan 17, 5:00 PM)
Average13 °F77%30.05 "Hg
* Reported Jan 11 10:00 PM — Jan 26 10:00 PM, Thunder Bay, Weather by CustomWeather, © 2014

Note: Actual official high and low records may vary slightly from our data, if they occured in-between our weather recording intervals... More about our weather records

Advertising

Thunder Bay weather history for previous 24 hours

 ConditionsComfort  
Time TempWeatherWind HumidityBarometerVisibility
10:00 PM
Jan 26
21 °FLight snow. Partly cloudy.3 mph93%29.99 "Hg15 mi
9:00 PM21 °FLight snow. Mostly cloudy.3 mph100%29.96 "Hg15 mi
8:00 PM21 °FPassing clouds.No wind100%29.96 "Hg10 mi
7:00 PM23 °FLight snow. Low clouds.3 mph100%29.92 "Hg3 mi
6:00 PM23 °FLight snow. Overcast.7 mph100%29.89 "Hg1 mi
5:00 PM23 °FLight snow. Overcast.8 mph100%29.87 "Hg1 mi
4:00 PM25 °FLight snow. Overcast.8 mph86%29.84 "Hg2 mi
3:45 PM25 °FLight snow. Overcast.7 mph86%29.84 "Hg2 mi
3:00 PM25 °FLight snow. Overcast.5 mph86%29.82 "Hg6 mi
2:00 PM25 °FLight snow. Overcast.12 mph86%29.78 "Hg8 mi
1:00 PM25 °FLight snow. Overcast.9 mph86%29.80 "Hg20 mi
12:00 PM25 °FLight snow. Mostly cloudy.12 mph86%29.80 "Hg20 mi
11:52 AM25 °FOvercast.14 mph86%29.80 "Hg15 mi
11:00 AM23 °FLight snow. Partly sunny.3 mph100%29.79 "Hg2 mi
10:48 AM23 °FLight snow. Overcast.3 mph93%29.79 "Hg1 mi
10:00 AM21 °FLight snow. Ice fog.6 mph93%29.79 "Hg1 mi
9:00 AM16 °FLight snow. Overcast.2 mph93%29.79 "Hg1 mi
8:00 AM12 °FLight snow. Overcast.No wind92%29.80 "Hg3 mi
7:00 AM10 °FLight snow. Overcast.No wind92%29.82 "Hg2 mi
6:00 AM10 °FLight snow. Overcast.2 mph85%29.83 "Hg4 mi
5:00 AM10 °FLight snow. Overcast.No wind85%29.87 "Hg2 mi
4:00 AM9 °FLight snow. Overcast.No wind92%29.91 "Hg2 mi
3:46 AM9 °FLight snow. Overcast.No wind92%29.92 "Hg2 mi
3:00 AM9 °FLight snow. Overcast.No wind85%29.95 "Hg6 mi
2:49 AM9 °FLight snow. Overcast.3 mph85%29.95 "Hg2 mi
2:00 AM7 °FLight snow. Overcast.No wind85%29.96 "Hg15 mi
1:00 AM7 °FLight snow. Mostly cloudy.3 mph78%30.01 "Hg15 mi
12:00 AM7 °FLight snow. Mostly cloudy.2 mph78%30.03 "Hg15 mi
11:00 PM
Jan 25
5 °FLight snow. Overcast.3 mph78%30.06 "Hg10 mi
Weather by CustomWeather, © 2014

See weather overviewHow to use our weather pages